EW4055 Weather Reports


Display with metric or nautical units.
time (UTC)temp
F
wind
direction
speed
MPH
gust
MPH
rain 1hr
in
rain 24hr
in
rain mn
in
humidity
%
barometer
mb
20260504000235 62 274 3.0 4.0 0.00 0.00 0.00 62 1017.6
20260503234533 62 278 3.0 4.0 0.00 0.00 0.00 62 1017.7
20260503233535 62 274 4.0 4.0 0.00 0.00 0.00 62 1017.7
20260503232536 62 274 3.0 4.0 0.00 0.00 0.00 62 1017.7
20260503231532 63 254 3.0 4.0 0.00 0.00 0.00 62 1017.8
20260503230533 63 272 3.0 4.0 0.00 0.00 0.00 61 1017.8
20260503225529 62 274 3.0 5.0 0.00 0.00 0.00 61 1017.9
20260503224530 63 209 3.0 5.0 0.00 0.00 0.00 60 1017.8
20260503223533 63 266 3.0 3.0 0.00 0.00 0.00 59 1017.8
20260503222524 63 271 3.0 4.0 0.00 0.00 0.00 59 1017.8
20260503221525 62 251 3.0 4.0 0.00 0.00 0.00 59 1017.8
20260503220520 63 252 3.0 3.0 0.00 0.00 0.00 58 1017.8
20260503220315 63 255 2.0 3.0 0.00 0.00 0.00 58 1017.7
20260503214528 63 262 2.0 3.0 0.00 0.00 0.00 58 1017.7
20260503214055 63 261 2.0 3.0 0.00 0.00 0.00 59 1017.6
20260503213233 63 251 2.0 3.0 0.00 0.00 0.00 60 1017.6
20260503211515 62 252 2.0 3.0 0.00 0.00 0.00 60 1017.6
20260503211153 62 285 3.0 4.0 0.00 0.00 0.00 61 1017.5
20260503205505 62 288 3.0 4.0 0.00 0.00 0.00 62 1017.5
20260503204511 62 276 2.0 3.0 0.00 0.00 0.00 62 1017.5
20260503203507 62 274 2.0 3.0 0.00 0.00 0.00 63 1017.5
20260503202503 62 307 2.0 3.0 0.00 0.00 0.00 63 1017.5
20260503201828 61 192 0.0 1.0 0.00 0.00 0.00 61 1017.4
20260503201606 61 224 1.0 3.0 0.00 0.00 0.00 62 1017.4
20260503195504 62 192 1.0 1.0 0.00 0.00 0.00 59 1017.4
20260503194503 62 192 0.0 2.0 0.00 0.00 0.00 58 1017.3
20260503193502 62 221 0.0 2.0 0.00 0.00 0.00 58 1017.4
20260503192503 63 166 1.0 3.0 0.00 0.00 0.00 58 1017.3
20260503191500 63 147 2.0 4.0 0.00 0.00 0.00 57 1017.2
20260503190501 63 159 1.0 4.0 0.00 0.00 0.00 58 1017.2
20260503185502 64 134 2.0 4.0 0.00 0.00 0.00 58 1017.2
20260503184459 64 158 2.0 4.0 0.00 0.00 0.00 57 1017.1
20260503183459 65 168 1.0 3.0 0.00 0.00 0.00 57 1016.9
20260503182501 65 180 2.0 2.0 0.00 0.00 0.00 56 1017.1
20260503181459 66 0.0 3.0 0.00 0.00 0.00 56 1016.9
20260503180501 66 248 0.0 4.0 0.00 0.00 0.00 55 1017.1
20260503175459 67 155 1.0 5.0 0.00 0.00 0.00 54 1016.9
20260503174500 68 159 3.0 5.0 0.00 0.00 0.00 52 1016.9
20260503173504 68 110 2.0 5.0 0.00 0.00 0.00 52 1016.9
20260503172459 68 63 2.0 5.0 0.00 0.00 0.00 52 1016.9
20260503171458 69 138 1.0 5.0 0.00 0.00 0.00 52 1017.1
20260503171222 69 148 2.0 7.0 0.00 0.00 0.00 51 1017.1
20260503130453 78 92 5.0 6.0 0.00 0.00 0.00 34 1018.2
20260503110448 76 11 0.0 4.0 0.00 0.00 0.00 32 1019.0
20260503100257 74 134 3.0 6.0 0.00 0.00 0.00 40 1019.8
20260503090434 74 144 3.0 6.0 0.00 0.00 0.00 36 1020.1
20260503090247 73 103 1.0 3.0 0.00 0.00 0.00 41 1020.1
20260503081432 69 221 1.0 3.0 0.00 0.00 0.00 42 1020.2
20260503080426 68 319 1.0 3.0 0.00 0.00 0.00 51 1020.4
20260503072424 64 227 0.0 3.0 0.00 0.00 0.00 60 1020.3
20260503071421 62 274 1.0 2.0 0.00 0.00 0.00 58 1020.3
20260503070419 61 243 1.0 3.0 0.00 0.00 0.00 60 1020.3
20260503060155 56 272 2.0 4.0 0.00 0.00 0.00 62 1020.1
20260503052412 54 272 2.0 4.0 0.00 0.00 0.00 64 1019.9
20260503051404 53 272 4.0 5.0 0.00 0.00 0.00 64 1019.8
20260503050407 53 271 2.0 3.0 0.00 0.00 0.00 64 1019.8
20260503045407 53 288 2.0 4.0 0.00 0.00 0.00 64 1019.7
20260503044409 53 255 3.0 4.0 0.00 0.00 0.00 64 1019.8
20260503043403 53 0.0 3.0 0.00 0.00 0.00 64 1019.7
20260503042949 52 259 3.0 3.0 0.00 0.00 0.00 65 1019.7
20260503041359 52 264 2.0 4.0 0.00 0.00 0.00 66 1019.8
20260503040357 52 285 4.0 4.0 0.00 0.00 0.00 65 1019.7
20260503035358 52 283 3.0 4.0 0.00 0.00 0.00 65 1019.6
20260503034356 53 283 3.0 4.0 0.00 0.00 0.00 65 1019.6
20260503033352 53 275 2.0 3.0 0.00 0.00 0.00 65 1019.6
20260503032350 52 293 3.0 4.0 0.00 0.00 0.00 65 1019.8
20260503031351 52 289 3.0 4.0 0.00 0.00 0.00 65 1019.8
20260503030954 52 283 3.0 6.0 0.00 0.00 0.00 66 1019.9
20260503025350 52 285 2.0 3.0 0.00 0.00 0.00 66 1019.8
20260503024349 52 281 2.0 6.0 0.00 0.00 0.00 66 1019.9
20260503024209 52 282 3.0 4.0 0.00 0.00 0.00 66 1020.0
20260503023428 52 269 3.0 4.0 0.00 0.00 0.00 66 1019.9
20260503021351 52 282 4.0 5.0 0.00 0.00 0.00 67 1020.0
20260503020557 52 286 4.0 5.0 0.00 0.00 0.00 67 1020.0
20260503020418 52 0.0 3.0 0.00 0.00 0.00 67 1020.1
20260503014341 53 0.0 5.0 0.00 0.00 0.00 66 1020.1
20260503013339 53 279 4.0 7.0 0.00 0.00 0.00 66 1020.1
20260503013056 53 266 3.0 7.0 0.00 0.00 0.00 66 1020.2
20260503012048 53 269 3.0 4.0 0.00 0.00 0.00 66 1020.3
20260503010337 53 265 4.0 4.0 0.00 0.00 0.00 66 1020.2
20260503005947 53 0.0 0.0 0.00 0.00 0.00 66 1020.4
20260503004337 53 279 3.0 3.0 0.00 0.00 0.00 66 1020.5
20260503003338 53 0.0 0.0 0.00 0.00 0.00 67 1020.6
20260503002340 53 0.0 0.0 0.00 0.00 0.00 66 1020.7
20260503001336 53 266 3.0 5.0 0.00 0.00 0.00 67 1020.7